Lancaster, PA

3:09 AM EDT on May 26, 2018 (GMT -0400)
Lancaster

Weather History for KLNS - November, 2012

Change the Weather History Date:

Sunday, November 4, 2012

  Actual Average Record
Temperature  
Mean Temperature 40 °F -  
Max Temperature 42 °F 61 °F 76 °F (1982)
Min Temperature 39 °F 38 °F 25 °F (2006)
Degree Days  
Heating Degree Days 24    
Moisture  
Dew Point 28 °F    
Average Humidity 61    
Maximum Humidity 65    
Minimum Humidity 57    
Precipitation  
Precipitation 0.00 in - - ()
Sea Level Pressure  
Sea Level Pressure 30.05 in    
Wind  
Wind Speed 8 mph (NNW)    
Max Wind Speed 14 mph    
Max Gust Speed -    
Visibility 10 miles    
Events      
Averages and records for this station are not official NWS values.
T = Trace of Precipitation, MM = Missing Value Source: NWS Daily Summary

Daily Weather History Graph

Daily Weather History Graph

Search for Another Location

Airport or City:

Astronomy

Nov. 04, 2012 Rise Set
Actual Time 6:38 AM EST 4:58 PM EST
Civil Twilight 6:10 AM EST 5:26 PM EST
Nautical Twilight 5:37 AM EST 5:59 PM EST
Astronomical Twilight 5:06 AM EST 6:30 PM EST
Moon 9:34 PM EST (11/4) 11:20 AM EST (11/4)
Length of Visible Light 11h 16m
Length of Day
10h 20m
Waning Gibbous, 72% of the Moon is Illuminated
Nov 4
Waning Gibbous
Nov 6
Last Quarter
Nov 13
New
Nov 20
First Quarter
Nov 28
Full

Hourly Weather History & Observations

Time (EST) Temp. Windchill Dew Point Humidity Pressure Visibility Wind Dir Wind Speed Gust Speed Precip Events Conditions
12:53 AM 42.1 °F 37.1 °F 28.0 °F 58% 30.05 in 10.0 mi NW 8.1 mph - N/A   Overcast
1:53 AM 42.1 °F 37.7 °F 28.0 °F 58% 30.05 in 10.0 mi NNW 6.9 mph - N/A   Overcast
1:53 AM 41.0 °F 36.4 °F 28.0 °F 60% 30.04 in 10.0 mi NNW 6.9 mph - N/A   Overcast
2:53 AM 41.0 °F 35.2 °F 28.0 °F 60% 30.03 in 10.0 mi NW 9.2 mph - N/A   Overcast
3:53 AM 39.9 °F 35.1 °F 28.9 °F 65% 30.03 in 10.0 mi NW 6.9 mph - N/A   Overcast
4:53 AM 39.9 °F 35.8 °F 28.9 °F 65% 30.04 in 10.0 mi NW 5.8 mph - N/A   Overcast
5:53 AM 39.9 °F 35.1 °F 28.0 °F 63% 30.03 in 10.0 mi NW 6.9 mph - N/A   Overcast
6:53 AM 39.9 °F 33.4 °F 28.0 °F 63% 30.04 in 10.0 mi NNW 10.4 mph - N/A   Overcast
7:53 AM 39.9 °F 32.5 °F 28.0 °F 63% 30.06 in 10.0 mi NNW 12.7 mph - N/A   Overcast
8:53 AM 41.0 °F 35.2 °F 27.0 °F 57% 30.06 in 10.0 mi North 9.2 mph - N/A   Overcast
9:53 AM 41.0 °F 36.4 °F 27.0 °F 57% 30.06 in 10.0 mi NNW 6.9 mph - N/A   Overcast
10:53 AM 41.0 °F 34.7 °F 27.0 °F 57% 30.06 in 10.0 mi NNW 10.4 mph - N/A   Overcast
11:53 AM 41.0 °F 34.7 °F 27.0 °F 57% 30.05 in 10.0 mi NNW 10.4 mph - N/A   Overcast
12:53 PM 41.0 °F 34.3 °F 28.0 °F 60% 30.04 in 10.0 mi NNW 11.5 mph - N/A   Overcast
1:53 PM 39.9 °F 32.1 °F 28.0 °F 63% 30.04 in 10.0 mi NNW 13.8 mph - N/A   Overcast
2:53 PM 39.9 °F 32.9 °F 27.0 °F 60% 30.04 in 10.0 mi NNW 11.5 mph - N/A   Overcast
3:53 PM 39.9 °F 34.5 °F 27.0 °F 60% 30.04 in 10.0 mi NW 8.1 mph - N/A   Overcast
4:53 PM 39.9 °F 34.5 °F 27.0 °F 60% 30.04 in 10.0 mi NNW 8.1 mph - N/A   Overcast
5:53 PM 39.9 °F 35.1 °F 27.0 °F 60% 30.04 in 10.0 mi NNW 6.9 mph - N/A   Overcast
6:53 PM 39.9 °F 35.1 °F 27.0 °F 60% 30.05 in 10.0 mi NW 6.9 mph - N/A   Overcast
7:53 PM 39.9 °F 35.8 °F 27.0 °F 60% 30.05 in 10.0 mi NNW 5.8 mph - N/A   Overcast
8:53 PM 39.9 °F 34.5 °F 27.0 °F 60% 30.06 in 10.0 mi North 8.1 mph - N/A   Overcast
9:53 PM 39.0 °F 34.8 °F 27.0 °F 62% 30.05 in 10.0 mi North 5.8 mph - N/A   Overcast
10:53 PM 39.0 °F 34.8 °F 28.0 °F 65% 30.04 in 10.0 mi North 5.8 mph - N/A   Overcast